Regional Weather Roundup
Issued by NWS Midland/Odessa, TX

Skip options and go directly to product.
Home | Oldest Version | Next Version | Current Version | All | Text Only | Save Text | Print | Product List | Glossary On

Skip product version selection by date and time.   
025
ASUS44 KMAF 192301
RWRMAF
MIDLAND AREA WEATHER ROUNDUP
NATIONAL WEATHER SERVICE MIDLAND TX
500 PM CST FRI DEC 19 2014

...IN SOUTHWEST TEXAS AND SOUTHEAST NEW MEXICO...

CITY           SKY/WX    TMP DP  RH WIND       PRES   REMARKS
ALPINE         CLEAR     56  25  30 W9        30.17R
ANDREWS        FAIR      53  34  48 CALM      30.10S
ARTESIA        CLEAR     55  28  35 SE5       30.09S
BIG SPRING     CLOUDY    46  37  71 N5        30.16S
CARLSBAD       PTCLDY    56  33  42 E8        30.08R
DRYDEN           N/A     66  40  38 E8        30.05S
FORT STOCKTON  CLEAR     58  34  40 N9        30.10R
GUAD PASS      NOT AVBL
HOBBS          CLEAR     55  21  26 W9        30.10R
MARFA          SUNNY     54  27  35 W13       30.14S
MIDLAND AIRPK  CLEAR     53  39  61 CALM      30.12S
MIDLAND INTL   CLEAR     53  39  59 E3        30.11S
ODESSA         CLEAR     55  37  50 E5        30.11S
PECOS          CLEAR     59  32  36 N5        30.10S
PRESIDIO       FAIR      64  32  30 SW3       30.08S
SEMINOLE       CLEAR     54  33  44 CALM      30.10S
SNYDER         CLOUDY    43  38  80 CALM      30.15R
WINK           CLEAR     59  32  36 S5        30.08F
$$
...OTHER STATIONS IN TEXAS...

CITY           SKY/WX    TMP DP  RH WIND       PRES   REMARKS
ABILENE        CLOUDY    46  40  79 N8        30.16S
AMARILLO       CLOUDY    40  36  86 W6        30.12S WCI  36
AUSTIN         CLOUDY    54  48  80 N13       30.11R
BROWNSVILLE    CLOUDY    62  58  86 N10       30.00R
CORPUS CHRISTI CLOUDY    60  55  83 N15       30.03R
DALLAS FTW     CLOUDY    48  44  86 N10       30.16R
DEL RIO        CLEAR     70  42  36 N9        30.04S
EL PASO        MOSUNNY   54  33  45 E3        30.13F
HOUSTON INT    CLOUDY    54  52  93 N13       30.05R
LUBBOCK        MOCLDY    42  36  79 NE5       30.12S WCI  39
SAN ANGELO     CLOUDY    50  41  71 N5        30.14S
SAN ANTONIO    PTCLDY    59  48  67 N14       30.09R
WACO           CLOUDY    49  45  86 N15       30.16R
WICHITA FALLS  NOT AVBL
$$
...OTHER LOCATIONS IN NEW MEXICO...

CITY           SKY/WX    TMP DP  RH WIND       PRES   REMARKS
ALAMAGORDO     CLEAR     48  28  46 NW10      30.14S
ALBUQUERQUE    PTCLDY    43  23  45 NW17      30.17F WCI  35
CANNON AFB     CLEAR     46  29  52 NW7       30.10R
CLOVIS         CLEAR     46  28  49 NW7       30.09R
HOLLOMAN AFB   SUNNY     49  30  47 VRB7      30.13S
ROSWELL        CLEAR     58  22  24 NW5       30.07F
RUIDOSO        CLEAR     39  19  45 NW13G20   30.15R WCI  32
SANTA FE       CLEAR     38  19  46 N13       30.13S WCI  30
TRUTH OR CONSE SUNNY     49  26  41 E6        30.14S
TUCUMCARI      CLEAR     46  30  53 E5        30.08S
$$

USA.gov is the U.S. government's official web portal to all federal, state and local government web resources and services.